Regional Weather Roundup
Issued by NWS

Home | Current Version | Previous Version | Text Only | Print | Product List | Glossary Off
Versions: 1 2 3 4 5 6 7 8 9 10 11 12 13 14 15 16 17 18 19 20 21 22 23 24 25 26 27 28 29 30 31 32 33 34 35 36 37 38 39 40 41 42 43 44 45 46 47 48 49 50

000
ASUS43 KLMK 280610
RWRKY
KENTUCKY REGIONAL WEATHER ROUNDUP
NATIONAL WEATHER SERVICE LOUISVILLE KY
200 AM EDT SAT MAR 28 2015

NOTE "FAIR" INDICATES FEW OR NO CLOUDS BELOW 12,000 FEET
WITH NO SIGNIFICANT WEATHER AND/OR OBSTRUCTIONS TO VISIBILITY.

KYZ001>023-026-027-061>063-070>075-280700-
WESTERN AND SOUTH CENTRAL KENTUCKY

CITY           SKY/WX    TMP DP  RH WIND       PRES   REMARKS
PADUCAH        CLEAR     28  21  75 CALM      30.19S
HENDERSON      CLEAR     30  18  59 N8        30.19F WCI  23
OWENSBORO      CLEAR     30  18  61 N6        30.19S WCI  24
HOPKINSVILLE   CLEAR     32  19  58 NW6       30.16S WCI  27
BOWLING GREEN  CLEAR     32  20  61 NW5       30.16S WCI  27
GLASGOW        CLOUDY    32  24  73 N6        30.13S WCI  26
$$

KYZ024-025-028>034-038-045-046-053-280700-
NORTH CENTRAL KENTUCKY

CITY           SKY/WX    TMP DP  RH WIND       PRES   REMARKS
LOUISVILLE/SDF PTCLDY    29  16  58 N9        30.16S WCI  20
LOUISVILLE/LOU CLEAR     28  16  60 N8        30.16S WCI  20
FORT KNOX      CLEAR     27  15  60 NW9       30.13R WCI  18
$$

KYZ035>037-039>044-047>052-055>060-089>105-280700-
NORTHEAST KENTUCKY

CITY           SKY/WX    TMP DP  RH WIND       PRES   REMARKS
LEXINGTON      CLEAR     25  16  68 N8        30.10S WCI  16
COVINGTON      PTCLDY    25  12  58 N13       30.11S WCI  14
FRANKFORT      CLEAR     26  16  65 NW7       30.11S WCI  18
$$

KYZ054-064>069-076>088-106>120-280700-
SOUTHEAST KENTUCKY

CITY           SKY/WX    TMP DP  RH WIND       PRES   REMARKS
JACKSON        CLOUDY    28  14  55 VRB5      30.04F WCI  23
LONDON         CLOUDY    31  18  58 N7        30.07R WCI  24
SOMERSET       CLOUDY    30  19  64 N8        30.11S WCI  23
MIDDLESBORO    CLOUDY    32  25  74 N6        30.06S WCI  26
MONTICELLO     MOCLDY    33  23  67 N10       30.12S WCI  25
$$



USA.gov is the U.S. government's official web portal to all federal, state and local government web resources and services.